Time,TemperatureF,DewpointF,PressureIn,WindDirection,WindDirectionDegrees,WindSpeedMPH,WindSpeedGustMPH,Humidity,HourlyPrecipIn,Conditions,Clouds,dailyrainin,SoftwareType,DateUTC
2013-04-20 00:02:00,39.0,25.0,-100.00,ENE,65,9.0,12.0,56,-99.99,,,-99.99,,2013-04-20 06:02:00,
2013-04-20 00:12:00,39.0,25.0,-100.00,ENE,65,7.0,11.0,56,-99.99,,,-99.99,,2013-04-20 06:12:00,
2013-04-20 00:21:00,39.0,25.0,-100.00,ENE,65,7.0,9.0,55,-99.99,,,-99.99,,2013-04-20 06:21:00,
2013-04-20 00:32:00,39.0,25.0,-100.00,East,80,6.0,10.0,55,-99.99,,,-99.99,,2013-04-20 06:32:00,
2013-04-20 00:42:00,38.0,24.0,-100.00,East,80,7.0,11.0,56,-99.99,,,-99.99,,2013-04-20 06:42:00,
2013-04-20 00:52:00,39.0,25.0,-100.00,ENE,75,7.0,12.0,55,-99.99,,,-99.99,,2013-04-20 06:52:00,
2013-04-20 01:01:00,39.0,24.0,-100.00,ENE,75,7.0,11.0,55,-99.99,,,-99.99,,2013-04-20 07:01:00,
2013-04-20 01:11:00,39.0,24.0,-100.00,ENE,60,4.0,9.0,55,-99.99,,,-99.99,,2013-04-20 07:11:00,
2013-04-20 01:21:00,39.0,24.0,-100.00,NE,35,2.0,5.0,56,-99.99,,,-99.99,,2013-04-20 07:21:00,
2013-04-20 01:32:00,37.0,24.0,-100.00,North,5,2.0,2.0,58,-99.99,,,-99.99,,2013-04-20 07:32:00,
2013-04-20 01:42:00,37.0,25.0,-100.00,ENE,65,3.0,6.0,60,-99.99,,,-99.99,,2013-04-20 07:42:00,
2013-04-20 01:52:00,39.0,26.0,-100.00,East,90,6.0,9.0,60,-99.99,,,-99.99,,2013-04-20 07:52:00,
2013-04-20 02:01:00,39.0,26.0,-100.00,East,85,12.0,16.0,59,-99.99,,,-99.99,,2013-04-20 08:01:00,
2013-04-20 02:11:00,39.0,26.0,-100.00,East,90,16.0,18.0,59,-99.99,,,-99.99,,2013-04-20 08:11:00,
2013-04-20 02:21:00,40.0,25.0,-100.00,East,95,15.0,19.0,55,-99.99,,,-99.99,,2013-04-20 08:21:00,
2013-04-20 02:31:00,41.0,24.0,-100.00,East,95,18.0,21.0,50,-99.99,,,-99.99,,2013-04-20 08:31:00,
2013-04-20 02:42:00,41.0,24.0,-100.00,East,100,17.0,20.0,50,-99.99,,,-99.99,,2013-04-20 08:42:00,
2013-04-20 02:52:00,41.0,24.0,-100.00,ESE,105,15.0,19.0,51,-99.99,,,-99.99,,2013-04-20 08:52:00,
2013-04-20 03:01:00,41.0,24.0,-100.00,ESE,105,12.0,18.0,51,-99.99,,,-99.99,,2013-04-20 09:01:00,
2013-04-20 03:12:00,41.0,24.0,-100.00,East,100,12.0,17.0,51,-99.99,,,-99.99,,2013-04-20 09:12:00,
2013-04-20 03:21:00,41.0,25.0,-100.00,East,95,14.0,19.0,51,-99.99,,,-99.99,,2013-04-20 09:21:00,
2013-04-20 03:32:00,40.0,25.0,-100.00,East,90,9.0,14.0,53,-99.99,,,-99.99,,2013-04-20 09:32:00,
2013-04-20 03:43:00,40.0,25.0,-100.00,East,95,9.0,13.0,55,-99.99,,,-99.99,,2013-04-20 09:43:00,
2013-04-20 03:52:00,40.0,25.0,-100.00,East,95,12.0,14.0,54,-99.99,,,-99.99,,2013-04-20 09:52:00,
2013-04-20 04:02:00,39.0,25.0,-100.00,East,85,12.0,14.0,56,-99.99,,,-99.99,,2013-04-20 10:02:00,
2013-04-20 04:12:00,39.0,25.0,-100.00,East,95,10.0,14.0,56,-99.99,,,-99.99,,2013-04-20 10:12:00,
2013-04-20 04:23:00,39.0,25.0,-100.00,ESE,105,9.0,12.0,56,-99.99,,,-99.99,,2013-04-20 10:23:00,
2013-04-20 04:33:00,38.0,25.0,-100.00,SE,125,6.0,9.0,58,-99.99,,,-99.99,,2013-04-20 10:33:00,
2013-04-20 04:42:00,37.0,24.0,-100.00,SE,125,7.0,9.0,59,-99.99,,,-99.99,,2013-04-20 10:42:00,
2013-04-20 04:52:00,38.0,24.0,-100.00,ESE,115,9.0,12.0,57,-99.99,,,-99.99,,2013-04-20 10:52:00,
2013-04-20 05:02:00,37.0,24.0,-100.00,ESE,115,6.0,11.0,59,-99.99,,,-99.99,,2013-04-20 11:02:00,
2013-04-20 05:12:00,35.0,23.0,-100.00,SW,225,4.0,7.0,60,-99.99,,,-99.99,,2013-04-20 11:12:00,
2013-04-20 05:23:00,35.0,23.0,-100.00,East,80,3.0,6.0,60,-99.99,,,-99.99,,2013-04-20 11:23:00,
2013-04-20 05:32:00,36.0,23.0,-100.00,East,90,5.0,7.0,58,-99.99,,,-99.99,,2013-04-20 11:32:00,
2013-04-20 05:42:00,35.0,22.0,-100.00,NW,325,3.0,4.0,59,-99.99,,,-99.99,,2013-04-20 11:42:00,
2013-04-20 05:52:00,34.0,22.0,-100.00,NNE,25,1.0,4.0,61,-99.99,,,-99.99,,2013-04-20 11:52:00,
2013-04-20 06:02:00,34.0,22.0,-100.00,East,90,2.0,4.0,61,-99.99,,,-99.99,,2013-04-20 12:02:00,
2013-04-20 06:11:00,35.0,22.0,-100.00,East,80,4.0,4.0,59,-99.99,,,-99.99,,2013-04-20 12:11:00,
2013-04-20 06:22:00,34.0,22.0,-100.00,East,80,2.0,5.0,60,-99.99,,,-99.99,,2013-04-20 12:22:00,
2013-04-20 06:32:00,33.0,21.0,-100.00,NNE,25,0.0,2.0,61,-99.99,,,-99.99,,2013-04-20 12:32:00,
2013-04-20 06:42:00,32.0,21.0,-100.00,North,5,0.0,2.0,62,-99.99,,,-99.99,,2013-04-20 12:42:00,
2013-04-20 06:51:00,32.0,21.0,-100.00,ENE,65,0.0,1.0,63,-99.99,,,-99.99,,2013-04-20 12:51:00,
2013-04-20 07:02:00,33.0,22.0,-100.00,ENE,60,1.0,3.0,64,-99.99,,,-99.99,,2013-04-20 13:02:00,
2013-04-20 07:11:00,33.0,22.0,-100.00,NE,40,3.0,4.0,64,-99.99,,,-99.99,,2013-04-20 13:11:00,
2013-04-20 07:21:00,32.0,23.0,-100.00,ENE,60,4.0,6.0,67,-99.99,,,-99.99,,2013-04-20 13:21:00,
2013-04-20 07:31:00,33.0,25.0,-100.00,East,80,4.0,6.0,70,-99.99,,,-99.99,,2013-04-20 13:31:00,
2013-04-20 07:42:00,34.0,25.0,-100.00,ENE,75,6.0,7.0,68,-99.99,,,-99.99,,2013-04-20 13:42:00,
2013-04-20 07:52:00,35.0,25.0,-100.00,ENE,75,6.0,9.0,68,-99.99,,,-99.99,,2013-04-20 13:52:00,
2013-04-20 08:02:00,35.0,26.0,-100.00,East,85,5.0,6.0,66,-99.99,,,-99.99,,2013-04-20 14:02:00,
2013-04-20 08:11:00,36.0,26.0,-100.00,East,100,5.0,6.0,66,-99.99,,,-99.99,,2013-04-20 14:11:00,
2013-04-20 08:21:00,37.0,26.0,-100.00,ESE,105,4.0,9.0,66,-99.99,,,-99.99,,2013-04-20 14:21:00,
2013-04-20 08:31:00,37.0,27.0,-100.00,SE,135,4.0,8.0,65,-99.99,,,-99.99,,2013-04-20 14:31:00,
2013-04-20 08:42:00,38.0,27.0,-100.00,SE,140,3.0,7.0,63,-99.99,,,-99.99,,2013-04-20 14:42:00,
2013-04-20 08:51:00,40.0,28.0,-100.00,South,190,4.0,6.0,62,-99.99,,,-99.99,,2013-04-20 14:51:00,
2013-04-20 09:01:00,41.0,28.0,-100.00,SW,220,3.0,6.0,59,-99.99,,,-99.99,,2013-04-20 15:01:00,
2013-04-20 09:11:00,43.0,29.0,-100.00,SW,230,4.0,7.0,57,-99.99,,,-99.99,,2013-04-20 15:11:00,
2013-04-20 09:21:00,44.0,29.0,-100.00,SSW,200,0.0,6.0,55,-99.99,,,-99.99,,2013-04-20 15:21:00,
2013-04-20 09:33:00,45.0,29.0,-100.00,South,175,2.0,3.0,52,-99.99,,,-99.99,,2013-04-20 15:33:00,
2013-04-20 09:43:00,46.0,29.0,-100.00,SSE,165,2.0,4.0,50,-99.99,,,-99.99,,2013-04-20 15:43:00,
2013-04-20 09:53:00,47.0,30.0,-100.00,SSW,195,2.0,5.0,50,-99.99,,,-99.99,,2013-04-20 15:53:00,
2013-04-20 10:03:00,49.0,29.0,-100.00,SW,215,4.0,6.0,47,-99.99,,,-99.99,,2013-04-20 16:03:00,
2013-04-20 10:12:00,48.0,29.0,-100.00,SW,225,3.0,6.0,45,-99.99,,,-99.99,,2013-04-20 16:12:00,
2013-04-20 10:23:00,48.0,28.0,-100.00,SW,220,4.0,7.0,45,-99.99,,,-99.99,,2013-04-20 16:23:00,
2013-04-20 10:32:00,48.0,28.0,-100.00,WSW,255,4.0,7.0,46,-99.99,,,-99.99,,2013-04-20 16:32:00,
2013-04-20 10:42:00,48.0,29.0,-100.00,SW,220,3.0,6.0,45,-99.99,,,-99.99,,2013-04-20 16:42:00,
2013-04-20 10:52:00,50.0,30.0,-100.00,SSW,200,3.0,7.0,45,-99.99,,,-99.99,,2013-04-20 16:52:00,
2013-04-20 11:02:00,52.0,31.0,-100.00,SSW,195,4.0,8.0,44,-99.99,,,-99.99,,2013-04-20 17:02:00,
2013-04-20 11:12:00,51.0,30.0,-100.00,SW,225,6.0,7.0,42,-99.99,,,-99.99,,2013-04-20 17:12:00,
2013-04-20 11:23:00,52.0,29.0,-100.00,SSW,200,5.0,7.0,42,-99.99,,,-99.99,,2013-04-20 17:23:00,
2013-04-20 11:33:00,54.0,31.0,-100.00,South,190,4.0,8.0,40,-99.99,,,-99.99,,2013-04-20 17:33:00,
2013-04-20 11:42:00,55.0,31.0,-100.00,South,185,1.0,6.0,39,-99.99,,,-99.99,,2013-04-20 17:42:00,
2013-04-20 11:52:00,55.0,31.0,-100.00,South,175,4.0,7.0,38,-99.99,,,-99.99,,2013-04-20 17:52:00,
2013-04-20 12:02:00,56.0,29.0,-100.00,South,190,3.0,7.0,35,-99.99,,,-99.99,,2013-04-20 18:02:00,
2013-04-20 12:12:00,58.0,29.0,-100.00,SW,215,4.0,7.0,33,-99.99,,,-99.99,,2013-04-20 18:12:00,
2013-04-20 12:22:00,56.0,26.0,-100.00,West,265,9.0,12.0,31,-99.99,,,-99.99,,2013-04-20 18:22:00,
2013-04-20 12:32:00,56.0,26.0,-100.00,WSW,255,4.0,12.0,31,-99.99,,,-99.99,,2013-04-20 18:32:00,
2013-04-20 12:41:00,56.0,26.0,-100.00,WSW,255,2.0,14.0,31,-99.99,,,-99.99,,2013-04-20 18:41:00,
2013-04-20 12:52:00,57.0,26.0,-100.00,WSW,250,7.0,13.0,30,-99.99,,,-99.99,,2013-04-20 18:52:00,
2013-04-20 13:01:00,57.0,27.0,-100.00,WSW,240,9.0,12.0,30,-99.99,,,-99.99,,2013-04-20 19:01:00,
2013-04-20 13:11:00,58.0,28.0,-100.00,NW,310,10.0,16.0,31,-99.99,,,-99.99,,2013-04-20 19:11:00,
2013-04-20 13:21:00,58.0,27.0,-100.00,WNW,295,6.0,12.0,30,-99.99,,,-99.99,,2013-04-20 19:21:00,
2013-04-20 13:32:00,58.0,27.0,-100.00,West,265,13.0,17.0,30,-99.99,,,-99.99,,2013-04-20 19:32:00,
2013-04-20 13:42:00,58.0,26.0,-100.00,West,260,12.0,19.0,29,-99.99,,,-99.99,,2013-04-20 19:42:00,
2013-04-20 13:52:00,58.0,27.0,-100.00,WSW,255,9.0,15.0,29,-99.99,,,-99.99,,2013-04-20 19:52:00,
2013-04-20 14:02:00,58.0,26.0,-100.00,West,265,11.0,18.0,29,-99.99,,,-99.99,,2013-04-20 20:02:00,
2013-04-20 14:12:00,58.0,27.0,-100.00,SW,235,9.0,14.0,29,-99.99,,,-99.99,,2013-04-20 20:12:00,
2013-04-20 14:21:00,58.0,27.0,-100.00,West,265,7.0,16.0,29,-99.99,,,-99.99,,2013-04-20 20:21:00,
2013-04-20 14:32:00,57.0,26.0,-100.00,WSW,240,11.0,19.0,30,-99.99,,,-99.99,,2013-04-20 20:32:00,
2013-04-20 14:42:00,57.0,27.0,-100.00,West,275,8.0,14.0,30,-99.99,,,-99.99,,2013-04-20 20:42:00,
2013-04-20 14:52:00,58.0,28.0,-100.00,WSW,255,10.0,14.0,31,-99.99,,,-99.99,,2013-04-20 20:52:00,
2013-04-20 15:01:00,57.0,27.0,-100.00,West,280,7.0,15.0,31,-99.99,,,-99.99,,2013-04-20 21:01:00,
2013-04-20 15:12:00,57.0,27.0,-100.00,West,270,12.0,16.0,31,-99.99,,,-99.99,,2013-04-20 21:12:00,
2013-04-20 15:21:00,58.0,28.0,-100.00,WNW,295,6.0,16.0,31,-99.99,,,-99.99,,2013-04-20 21:21:00,
2013-04-20 15:32:00,57.0,27.0,-100.00,West,280,7.0,12.0,31,-99.99,,,-99.99,,2013-04-20 21:32:00,
2013-04-20 15:43:00,58.0,28.0,-100.00,SW,235,11.0,15.0,31,-99.99,,,-99.99,,2013-04-20 21:43:00,
2013-04-20 15:52:00,58.0,28.0,-100.00,WSW,255,12.0,16.0,31,-99.99,,,-99.99,,2013-04-20 21:52:00,
2013-04-20 16:02:00,57.0,27.0,-100.00,West,275,11.0,13.0,31,-99.99,,,-99.99,,2013-04-20 22:02:00,
2013-04-20 16:12:00,58.0,28.0,-100.00,WNW,285,6.0,11.0,31,-99.99,,,-99.99,,2013-04-20 22:12:00,
2013-04-20 16:22:00,57.0,28.0,-100.00,WSW,250,11.0,19.0,31,-99.99,,,-99.99,,2013-04-20 22:22:00,
2013-04-20 16:32:00,58.0,28.0,-100.00,West,280,12.0,16.0,31,-99.99,,,-99.99,,2013-04-20 22:32:00,
2013-04-20 16:42:00,59.0,29.0,-100.00,West,260,7.0,12.0,30,-99.99,,,-99.99,,2013-04-20 22:42:00,
2013-04-20 16:52:00,57.0,27.0,-100.00,WSW,245,11.0,17.0,31,-99.99,,,-99.99,,2013-04-20 22:52:00,
2013-04-20 17:02:00,57.0,27.0,-100.00,West,265,11.0,14.0,31,-99.99,,,-99.99,,2013-04-20 23:02:00,
2013-04-20 17:11:00,57.0,27.0,-100.00,WSW,250,6.0,11.0,31,-99.99,,,-99.99,,2013-04-20 23:11:00,
2013-04-20 17:22:00,59.0,28.0,-100.00,West,265,9.0,12.0,30,-99.99,,,-99.99,,2013-04-20 23:22:00,
2013-04-20 17:32:00,57.0,27.0,-100.00,West,275,7.0,11.0,30,-99.99,,,-99.99,,2013-04-20 23:32:00,
2013-04-20 17:42:00,56.0,27.0,-100.00,WSW,255,7.0,15.0,31,-99.99,,,-99.99,,2013-04-20 23:42:00,
2013-04-20 17:52:00,56.0,27.0,-100.00,West,260,6.0,10.0,32,-99.99,,,-99.99,,2013-04-20 23:52:00,
2013-04-20 18:01:00,56.0,27.0,-100.00,West,275,7.0,9.0,32,-99.99,,,-99.99,,2013-04-21 00:01:00,
2013-04-20 18:11:00,56.0,28.0,-100.00,West,270,9.0,11.0,32,-99.99,,,-99.99,,2013-04-21 00:11:00,
2013-04-20 18:21:00,56.0,28.0,-100.00,WSW,255,9.0,12.0,32,-99.99,,,-99.99,,2013-04-21 00:21:00,
2013-04-20 18:32:00,56.0,27.0,-100.00,West,270,7.0,12.0,32,-99.99,,,-99.99,,2013-04-21 00:32:00,
2013-04-20 18:42:00,55.0,27.0,-100.00,West,265,7.0,10.0,34,-99.99,,,-99.99,,2013-04-21 00:42:00,
2013-04-20 18:52:00,55.0,29.0,-100.00,West,280,7.0,9.0,36,-99.99,,,-99.99,,2013-04-21 00:52:00,
2013-04-20 19:01:00,55.0,29.0,-100.00,WNW,295,7.0,9.0,36,-99.99,,,-99.99,,2013-04-21 01:01:00,
2013-04-20 19:11:00,55.0,29.0,-100.00,WNW,290,6.0,9.0,36,-99.99,,,-99.99,,2013-04-21 01:11:00,
2013-04-20 19:21:00,53.0,29.0,-100.00,WNW,285,6.0,8.0,39,-99.99,,,-99.99,,2013-04-21 01:21:00,
2013-04-20 19:31:00,52.0,29.0,-100.00,WNW,285,5.0,7.0,41,-99.99,,,-99.99,,2013-04-21 01:31:00,
2013-04-20 19:41:00,51.0,29.0,-100.00,WNW,285,6.0,7.0,42,-99.99,,,-99.99,,2013-04-21 01:41:00,
2013-04-20 19:52:00,51.0,30.0,-100.00,WNW,285,3.0,6.0,42,-99.99,,,-99.99,,2013-04-21 01:52:00,
2013-04-20 20:01:00,51.0,30.0,-100.00,West,275,6.0,6.0,44,-99.99,,,-99.99,,2013-04-21 02:01:00,
2013-04-20 20:11:00,49.0,31.0,-100.00,West,275,7.0,8.0,48,-99.99,,,-99.99,,2013-04-21 02:11:00,
2013-04-20 20:21:00,49.0,32.0,-100.00,WNW,290,5.0,7.0,51,-99.99,,,-99.99,,2013-04-21 02:21:00,
2013-04-20 20:32:00,49.0,33.0,-100.00,WNW,285,5.0,6.0,53,-99.99,,,-99.99,,2013-04-21 02:32:00,
2013-04-20 20:41:00,48.0,33.0,-100.00,West,280,7.0,7.0,56,-99.99,,,-99.99,,2013-04-21 02:41:00,
2013-04-20 20:51:00,48.0,35.0,-100.00,NW,310,6.0,7.0,59,-99.99,,,-99.99,,2013-04-21 02:51:00,
2013-04-20 21:01:00,48.0,35.0,-100.00,NW,320,4.0,6.0,60,-99.99,,,-99.99,,2013-04-21 03:01:00,
2013-04-20 21:11:00,49.0,35.0,-100.00,NNW,345,4.0,7.0,59,-99.99,,,-99.99,,2013-04-21 03:11:00,
2013-04-20 21:21:00,49.0,35.0,-100.00,NW,320,3.0,6.0,58,-99.99,,,-99.99,,2013-04-21 03:21:00,
2013-04-20 21:32:00,49.0,35.0,-100.00,NW,305,0.0,4.0,58,-99.99,,,-99.99,,2013-04-21 03:32:00,
2013-04-20 21:42:00,48.0,36.0,-100.00,East,100,7.0,8.0,62,-99.99,,,-99.99,,2013-04-21 03:42:00,
2013-04-20 21:52:00,48.0,36.0,-100.00,ESE,105,3.0,6.0,62,-99.99,,,-99.99,,2013-04-21 03:52:00,
2013-04-20 22:02:00,48.0,36.0,-100.00,SE,130,2.0,3.0,61,-99.99,,,-99.99,,2013-04-21 04:02:00,
2013-04-20 22:12:00,49.0,35.0,-100.00,SSE,150,6.0,7.0,59,-99.99,,,-99.99,,2013-04-21 04:12:00,
2013-04-20 22:22:00,49.0,35.0,-100.00,SSE,165,9.0,12.0,60,-99.99,,,-99.99,,2013-04-21 04:22:00,
2013-04-20 22:33:00,49.0,35.0,-100.00,SSE,160,9.0,13.0,59,-99.99,,,-99.99,,2013-04-21 04:33:00,
2013-04-20 22:42:00,48.0,36.0,-100.00,SW,220,7.0,11.0,63,-99.99,,,-99.99,,2013-04-21 04:42:00,
2013-04-20 22:52:00,48.0,36.0,-100.00,SW,220,7.0,11.0,63,-99.99,,,-99.99,,2013-04-21 04:52:00,
2013-04-20 23:02:00,47.0,37.0,-100.00,WSW,245,14.0,16.0,68,-99.99,,,-99.99,,2013-04-21 05:02:00,
2013-04-20 23:12:00,46.0,37.0,-100.00,WSW,250,11.0,17.0,70,-99.99,,,-99.99,,2013-04-21 05:12:00,
2013-04-20 23:22:00,45.0,37.0,-100.00,West,265,4.0,11.0,73,-99.99,,,-99.99,,2013-04-21 05:22:00,
2013-04-20 23:32:00,44.0,37.0,-100.00,West,280,1.0,5.0,73,-99.99,,,-99.99,,2013-04-21 05:32:00,
2013-04-20 23:42:00,44.0,37.0,-100.00,NNW,335,6.0,6.0,76,-99.99,,,-99.99,,2013-04-21 05:42:00,
2013-04-20 23:52:00,43.0,37.0,-100.00,NNW,330,4.0,6.0,79,-99.99,,,-99.99,,2013-04-21 05:52:00,